DW1256 Weather Reports


time (UTC)temp
C
wind
direction
speed
KPH
gust
KPH
rain 1hr
cm
rain 24hr
cm
rain mn
cm
humidity
%
barometer
mb
20260504013507 15 156 3.2 8.0 0.00 0.00 0.00 45 1006.9
20260504013002 15 209 1.6 6.4 0.00 0.00 0.00 44 1007.0
20260504011949 15 180 3.2 8.0 0.00 0.00 0.00 43 1006.9
20260504011443 16 174 1.6 6.4 0.00 0.00 0.00 43 1006.9
20260504010431 16 165 1.6 6.4 0.00 0.00 0.00 42 1006.9
20260504005925 16 163 1.6 8.0 0.00 0.00 0.00 41 1006.9
20260504005419 16 178 1.6 8.0 0.00 0.00 0.00 40 1006.9
20260504004913 17 172 1.6 8.0 0.00 0.00 0.00 40 1006.9
20260504004407 17 228 1.6 9.7 0.00 0.00 0.00 39 1006.8
20260504003902 17 186 3.2 9.7 0.00 0.00 0.00 39 1006.9
20260504003356 17 219 3.2 8.0 0.00 0.00 0.00 38 1006.9
20260504002343 18 198 3.2 11.3 0.00 0.00 0.00 37 1006.8
20260504001837 18 226 3.2 17.7 0.00 0.00 0.00 37 1006.8
20260504000825 18 231 3.2 11.3 0.00 0.00 0.00 36 1006.8
20260504000319 18 223 4.8 11.3 0.00 0.00 0.00 36 1006.9
20260503235813 18 142 4.8 16.1 0.00 0.00 0.00 36 1006.8
20260503235307 18 200 4.8 16.1 0.00 0.00 0.00 36 1006.9
20260503234801 18 206 4.8 12.9 0.00 0.00 0.00 37 1006.9
20260503234256 18 243 4.8 17.7 0.00 0.00 0.00 38 1007.0
20260503233749 18 207 4.8 11.3 0.00 0.00 0.00 37 1007.1
20260503233243 18 221 4.8 14.5 0.00 0.00 0.00 37 1007.2
20260503232738 18 194 4.8 14.5 0.00 0.00 0.00 37 1007.2
20260503232232 18 213 4.8 12.9 0.00 0.00 0.00 37 1007.3
20260503231725 18 196 6.4 16.1 0.00 0.00 0.00 37 1007.3
20260503231219 18 163 6.4 17.7 0.00 0.00 0.00 36 1007.3
20260503230713 18 232 6.4 22.5 0.00 0.00 0.00 36 1007.2
20260503230208 18 196 6.4 17.7 0.00 0.00 0.00 36 1007.4
20260503225701 18 197 6.4 14.5 0.00 0.00 0.00 36 1007.5
20260503225155 18 229 6.4 17.7 0.00 0.00 0.00 35 1007.6
20260503224649 18 0 8.0 19.3 0.00 0.00 0.00 34 1007.6
20260503224144 18 0 9.7 25.7 0.00 0.00 0.00 35 1007.7
20260503223637 18 223 8.0 25.7 0.00 0.00 0.00 35 1007.7
20260503222626 17 319 9.7 27.4 0.00 0.00 0.00 36 1007.8
20260503222120 17 240 8.0 27.4 0.00 0.00 0.00 36 1007.8
20260503221614 18 225 6.4 19.3 0.00 0.00 0.00 36 1007.8
20260503221107 17 243 6.4 19.3 0.00 0.00 0.00 37 1007.8
20260503220601 17 226 8.0 17.7 0.00 0.00 0.00 37 1008.0
20260503220055 17 214 8.0 19.3 0.00 0.00 0.00 36 1008.1
20260503215550 17 234 9.7 25.7 0.00 0.00 0.00 35 1008.0
20260503215043 18 215 9.7 24.1 0.00 0.00 0.00 34 1008.0
20260503214537 18 220 9.7 27.4 0.00 0.00 0.00 34 1007.9
20260503214031 18 200 9.7 27.4 0.00 0.00 0.00 34 1007.9
20260503212008 18 217 9.7 22.5 0.00 0.00 0.00 35 1008.3
20260503211502 17 160 11.3 37.0 0.00 0.00 0.00 33 1008.3
20260503210955 17 355 11.3 37.0 0.00 0.00 0.00 34 1008.4
20260503210449 18 218 11.3 24.1 0.00 0.00 0.00 32 1008.4
20260503205943 17 215 9.7 19.3 0.00 0.00 0.00 35 1008.4
20260503205437 17 85 8.0 22.5 0.00 0.00 0.00 34 1008.6
20260503204932 17 257 9.7 22.5 0.00 0.00 0.00 34 1008.6
20260503203919 18 0 9.7 32.2 0.00 0.00 0.00 33 1008.7
20260503203413 18 0 12.9 32.2 0.00 0.00 0.00 33 1008.7
20260503202912 18 0 9.7 30.6 0.00 0.00 0.00 33 1008.7
20260503202412 18 0 8.0 22.5 0.00 0.00 0.00 33 1008.6
20260503201912 18 147 8.0 22.5 0.00 0.00 0.00 33 1008.7
20260503201411 17 244 8.0 22.5 0.00 0.00 0.00 33 1008.9
20260503200912 18 131 9.7 29.0 0.00 0.00 0.00 34 1009.1
20260503200409 17 196 9.7 29.0 0.00 0.00 0.00 33 1009.2
20260503195909 17 160 9.7 29.0 0.00 0.00 0.00 34 1009.3
20260503195407 17 88 9.7 29.0 0.00 0.00 0.00 32 1009.3
20260503194908 17 171 9.7 33.8 0.00 0.00 0.00 31 1009.3
20260503194408 17 215 9.7 33.8 0.00 0.00 0.00 33 1009.6
20260503193909 17 234 9.7 30.6 0.00 0.00 0.00 32 1009.6
20260503192906 17 211 9.7 20.9 0.00 0.00 0.00 31 1009.9
20260503192407 17 182 9.7 30.6 0.00 0.00 0.00 31 1010.1
20260503191908 17 157 9.7 30.6 0.00 0.00 0.00 30 1010.2
20260503191402 17 256 9.7 24.1 0.00 0.00 0.00 30 1010.3
20260503190855 17 226 8.0 24.1 0.00 0.00 0.00 31 1010.2
20260503190350 17 137 8.0 30.6 0.00 0.00 0.00 32 1010.4
20260503185844 16 213 9.7 30.6 0.00 0.00 0.00 31 1010.7
20260503185342 16 198 8.0 19.3 0.00 0.00 0.00 31 1010.5
20260503184843 16 144 8.0 20.9 0.00 0.00 0.00 32 1010.8
20260503184342 16 271 9.7 20.9 0.00 0.00 0.00 31 1011.0
20260503183341 17 210 8.0 20.9 0.00 0.00 0.00 31 1011.1
20260503182841 17 269 8.0 20.9 0.00 0.00 0.00 34 1011.4
20260503182341 16 219 6.4 19.3 0.00 0.00 0.00 34 1011.4
20260503181839 16 329 6.4 20.9 0.00 0.00 0.00 35 1011.6
20260503181337 15 244 6.4 20.9 0.00 0.00 0.00 34 1011.9
20260503180837 15 241 6.4 17.7 0.00 0.00 0.00 35 1012.1
20260503174837 15 254 6.4 16.1 0.00 0.00 0.00 36 1012.6
20260503173837 15 196 8.0 19.3 0.00 0.00 0.00 35 1012.5
20260503173337 15 224 6.4 16.1 0.00 0.00 0.00 34 1012.5
20260503172838 15 227 4.8 14.5 0.00 0.00 0.00 36 1012.6
20260503172337 15 215 6.4 22.5 0.00 0.00 0.00 35 1012.6
20260503171838 15 210 6.4 22.5 0.00 0.00 0.00 34 1012.6
20260503170834 15 221 4.8 14.5 0.00 0.00 0.00 36 1012.7
20260503150825 13 200 6.4 14.5 0.00 0.00 0.00 44 1014.2
20260503150327 13 301 6.4 16.1 0.00 0.00 0.00 44 1014.3
20260503131316 10 219 6.4 19.3 0.00 0.00 0.00 47 1015.4
20260503130813 10 214 6.4 17.7 0.00 0.00 0.00 49 1015.4
20260503110804 5 161 1.6 9.7 0.00 0.00 0.00 56 1014.9
20260503110304 5 225 1.6 8.0 0.00 0.00 0.00 55 1015.0
20260503100228 5 158 3.2 11.3 0.00 0.00 0.00 54 1015.1
20260503090139 5 182 1.6 9.7 0.00 0.00 0.00 52 1015.1
20260503081634 5 261 1.6 8.0 0.00 0.00 0.00 52 1015.2
20260503081136 5 215 3.2 9.7 0.00 0.00 0.00 52 1015.2
20260503080636 5 219 3.2 9.7 0.00 0.00 0.00 52 1015.3
20260503080130 5 181 1.6 9.7 0.00 0.00 0.00 52 1015.4
20260503072548 5 202 1.6 6.4 0.00 0.00 0.00 53 1015.4
20260503072042 5 311 1.6 6.4 0.00 0.00 0.00 53 1015.4
20260503071536 5 221 1.6 4.8 0.00 0.00 0.00 53 1015.4
20260503071030 5 204 0.0 4.8 0.00 0.00 0.00 53 1015.4
20260503054346 5 319 0.0 0.0 0.00 0.00 0.00 51 1016.1
20260503053840 5 319 0.0 0.0 0.00 0.00 0.00 50 1016.2
20260503052827 5 319 0.0 0.0 0.00 0.00 0.00 50 1016.3
20260503052320 5 319 0.0 0.0 0.00 0.00 0.00 50 1016.4
20260503051815 5 319 0.0 3.2 0.00 0.00 0.00 50 1016.3
20260503051309 5 319 0.0 3.2 0.00 0.00 0.00 49 1016.4
20260503050802 5 319 0.0 3.2 0.00 0.00 0.00 49 1016.4
20260503050257 5 319 0.0 1.6 0.00 0.00 0.00 49 1016.4
20260503045750 5 319 0.0 3.2 0.00 0.00 0.00 49 1016.4
20260503044232 5 319 0.0 1.6 0.00 0.00 0.00 49 1016.3
20260503043726 5 319 0.0 1.6 0.00 0.00 0.00 49 1016.3
20260503042713 5 319 0.0 4.8 0.00 0.00 0.00 49 1016.3
20260503041156 5 323 0.0 0.0 0.00 0.00 0.00 48 1016.3
20260503040143 5 323 0.0 0.0 0.00 0.00 0.00 49 1016.3
20260503035132 6 323 0.0 0.0 0.00 0.00 0.00 49 1016.4
20260503034119 6 323 0.0 0.0 0.00 0.00 0.00 50 1016.4
20260503033613 6 323 0.0 0.0 0.00 0.00 0.00 50 1016.4
20260503033107 6 323 0.0 0.0 0.00 0.00 0.00 50 1016.4
20260503032601 6 323 0.0 0.0 0.00 0.00 0.00 50 1016.4
20260503032055 6 323 0.0 0.0 0.00 0.00 0.00 50 1016.5
20260503031044 6 323 0.0 0.0 0.00 0.00 0.00 50 1016.6
20260503030538 6 323 0.0 0.0 0.00 0.00 0.00 50 1016.6
20260503025525 6 323 0.0 0.0 0.00 0.00 0.00 48 1016.6
20260503025019 7 323 0.0 0.0 0.00 0.00 0.00 48 1016.6
20260503024514 7 323 0.0 0.0 0.00 0.00 0.00 48 1016.6
20260503023501 7 323 0.0 0.0 0.00 0.00 0.00 47 1016.5
20260503022955 7 323 0.0 0.0 0.00 0.00 0.00 46 1016.5
20260503022449 7 323 0.0 0.0 0.00 0.00 0.00 45 1016.5
20260503021943 7 323 0.0 0.0 0.00 0.00 0.00 44 1016.4
20260503015919 8 323 0.0 0.0 0.00 0.00 0.00 41 1016.3
20260503015413 8 323 0.0 0.0 0.00 0.00 0.00 39 1016.3
20260503014907 8 323 0.0 0.0 0.00 0.00 0.00 37 1016.2
20260503014401 9 323 0.0 0.0 0.00 0.00 0.00 37 1016.2